Location: Brantley
(31.5822°N, 86.2569°W)
Time: 05:36:40
(UTC+00:00)

Courier 1B Rocket - Pass Details

Date: 23 February 2026
Orbit: 920 x 1201 km, 28.2° (Epoch: 5 March)

Event Time Altitude Azimuth Distance (km) Brightness Sun altitude
Rises 23:37:15 0° 257° (WSW) 3,596 12.0 -0.6°
Reaches altitude 10° 23:39:56 10° 254° (WSW) 2,630 9.5 -1.1°
Maximum altitude 23:46:07 63° 174° (S) 1,015 5.2 -2.4°
Drops below altitude 10° 23:52:17 10° 95° (E) 2,614 6.6 -3.7°
Enters shadow 23:53:50 - 93° (E) 3,176 7.0 -4.0°
Sets 23:54:56 0° 92° (E) 3,574 - -4.3°
